Regional Weather Roundup
Issued by NWS

Home | Current Version | Previous Version | Text Only | Print | Product List | Glossary Off
Versions: 1 2 3 4 5 6 7 8 9 10 11 12 13 14 15 16 17 18 19 20 21 22 23 24 25 26 27

000
ASUS45 KCYS 240610
RWRWY

WYOMING REGIONAL WEATHER ROUNDUP
NATIONAL WEATHER SERVICE CHEYENNE WY
1200 AM MDT SAT SEP 24 2016

NOTE:  "FAIR" INDICATES FEW OR NO CLOUDS BELOW 12,000 FEET
WITH NO SIGNIFICANT WEATHER AND/OR OBSTRUCTIONS TO VISIBILITY.

WYZ001-240700-
YELLOWSTONE NATIONAL PARK

CITY           SKY/WX    TMP DP  RH WIND       PRES   REMARKS
LK YELLOWSTONE   N/A     41  41 100 VRB5      30.03R
6HR MIN TEMP:  41; 6HR MAX TEMP:  44; 6HR PCP:  0.02;

W YELLOWSTONE  NOT AVBL

$$
WYZ002>013-054>058-071-098>099-240700-
NORTHERN WYOMING

CITY           SKY/WX    TMP DP  RH WIND       PRES   REMARKS
JACKSON        CLOUDY    39  37  93 S7        30.01R WCI  34
CODY           CLOUDY    46  46 100 N7        29.95F
GREYBULL       LGT RAIN  51  49  92 N8        29.91F
6HR MIN TEMP:  51; 6HR MAX TEMP:  52; 6HR PCP:  0.24;

WORLAND        CLOUDY    49  48  97 W5        29.90F
6HR MIN TEMP:  49; 6HR MAX TEMP:  50; 6HR PCP:  0.07;

SHERIDAN       LGT RAIN  51  49  92 NW9       29.90F
6HR MIN TEMP:  51; 6HR MAX TEMP:  53; 6HR PCP:  0.28;

BUFFALO        LGT RAIN  49  47  93 NW8       29.92F
6HR MIN TEMP:  49; 6HR MAX TEMP:  50; 6HR PCP:  0.44;

GILLETTE       RAIN      51  51 100 W7        29.91R FOG
6HR MIN TEMP:  49; 6HR MAX TEMP:  55; 6HR PCP:  0.39;

HULETT         CLOUDY    54  52  94 NW10      29.86F
NEWCASTLE      RAIN      48  46  93 SW3       29.91S

$$
WYZ014>020-022>026-101>103-240700-
CENTRAL WYOMING

CITY           SKY/WX    TMP DP  RH WIND       PRES   REMARKS
BIG PINEY      CLOUDY    40  37  89 CALM      30.00F
6HR MIN TEMP:  39; 6HR MAX TEMP:  43; 6HR PCP:  0.03;

PINEDALE       CLOUDY    37  37 100 CALM      30.01F
DUBOIS         DRIZZLE   41  39  93 NW5       29.97F
LANDER         FAIR      45  41  86 W7        29.91F
6HR MIN TEMP:  45; 6HR MAX TEMP:  52;

RIVERTON       FAIR      45  42  89 N3        29.91F
6HR MIN TEMP:  45; 6HR MAX TEMP:  50;

CASPER         LGT RAIN  47  40  76 SW9       29.94F
6HR MIN TEMP:  46; 6HR MAX TEMP:  48; 6HR PCP: TRACE;

DOUGLAS        CLOUDY    49  39  68 SW5       29.97S
6HR MIN TEMP:  48; 6HR MAX TEMP:  65;


$$
WYZ021-027>030-104>119-240700-
SOUTHERN WYOMING

CITY           SKY/WX    TMP DP  RH WIND       PRES   REMARKS
EVANSTON       LGT RAIN  36  33  89 SW15      30.04F WCI  27
6HR MIN TEMP:  36; 6HR MAX TEMP:  39; 6HR PCP:  0.08;

FORT BRIDGER   CLOUDY    39  39  99 W16G23    30.06R WCI  30
ROCK SPRINGS   CLOUDY    39  36  89 SW8       30.02F WCI  33
6HR MIN TEMP:  38; 6HR MAX TEMP:  41; 6HR PCP: TRACE;

DIXON          CLOUDY    43  34  71 SW9       30.08R
RAWLINS        CLOUDY    40  34  79 SW12      30.01F WCI  33
6HR MIN TEMP:  40; 6HR MAX TEMP:  44;

SARATOGA       CLOUDY    41  34  75 SE7G18    30.04R
LARAMIE        LGT SNOW  32  32 100 SW5       30.05S VSB 1   WCI  27
6HR MIN TEMP:  32; 6HR MAX TEMP:  44; 6HR PCP:  0.17;

CHEYENNE       LGT RAIN  40  35  83 NW17G30   29.95R WCI  31
6HR MIN TEMP:  40; 6HR MAX TEMP:  55; 6HR PCP:  0.06;

TORRINGTON     CLOUDY    50  47  89 N6        29.91F
6HR MIN TEMP:  50; 6HR MAX TEMP:  60; 6HR PCP:  0.12;

PINE BLUFFS    CLOUDY    46  36  66 NW17G32   29.95F

$$




USA.gov is the U.S. government's official web portal to all federal, state and local government web resources and services.